IDALKE38 Weather Reports


time (UTC)temp
C
wind
direction
speed
KPH
gust
KPH
rain 1hr
cm
rain 24hr
cm
rain mn
cm
humidity
%
barometer
mb
20260510164536 11 360 19.3 32.2 0.00 0.18 0.10 62 1010.9
20260510163037 12 244 14.5 38.6 0.00 0.18 0.10 62 1010.8
20260510161539 11 246 22.5 37.0 0.00 0.18 0.10 63 1010.8
20260510160039 11 360 19.3 38.6 0.00 0.18 0.10 63 1010.8
20260510154537 11 252 19.3 32.2 0.00 0.18 0.10 62 1010.5
20260510153037 12 279 17.7 38.6 0.00 0.18 0.10 63 1010.5
20260510151541 10 236 20.9 33.8 0.00 0.18 0.10 63 1010.3
20260510150047 11 259 17.7 35.4 0.00 0.18 0.10 63 1010.1
20260510144538 11 267 25.7 37.0 0.00 0.18 0.10 63 1010.1
20260510143039 10 298 17.7 30.6 0.00 0.18 0.10 68 1010.0
20260510141537 11 289 14.5 30.6 0.00 0.18 0.10 66 1009.8
20260510140038 10 241 22.5 38.6 0.00 0.18 0.10 66 1009.6
20260510134537 11 236 16.1 27.4 0.00 0.18 0.10 68 1009.4
20260510133036 11 237 17.7 37.0 0.00 0.18 0.10 67 1009.2
20260510131541 10 278 20.9 30.6 0.00 0.18 0.10 68 1009.1
20260510130038 11 277 17.7 32.2 0.00 0.18 0.10 69 1009.0
20260510124539 10 214 19.3 32.2 0.00 0.18 0.10 71 1008.6
20260510123037 10 230 17.7 32.2 0.00 0.18 0.10 72 1008.5
20260510121537 10 252 14.5 29.0 0.00 0.18 0.10 73 1008.4
20260510120037 10 277 14.5 29.0 0.00 0.18 0.10 73 1008.2
20260510114547 10 244 19.3 32.2 0.00 0.18 0.10 74 1008.1
20260510113038 10 253 17.7 32.2 0.00 0.18 0.10 75 1007.8
20260510111539 10 262 14.5 30.6 0.00 0.18 0.10 77 1007.7
20260510110042 10 246 12.9 22.5 0.00 0.18 0.10 79 1007.4
20260510104537 10 219 11.3 24.1 0.00 0.18 0.10 80 1007.1
20260510103038 10 247 9.7 20.9 0.00 0.18 0.10 82 1006.8
20260510101538 10 215 8.0 19.3 0.00 0.18 0.10 84 1006.5
20260510100044 10 206 8.0 20.9 0.00 0.18 0.10 85 1006.0
20260510094546 10 235 9.7 22.5 0.00 0.18 0.10 86 1005.8
20260510093037 10 221 11.3 22.5 0.00 0.18 0.10 88 1005.8
20260510091541 10 222 9.7 17.7 0.00 0.18 0.10 89 1005.8
20260510090036 10 238 9.7 19.3 0.00 0.18 0.10 89 1005.7
20260510084539 10 228 9.7 25.7 0.00 0.18 0.10 90 1005.5
20260510083051 10 229 8.0 16.1 0.00 0.18 0.10 90 1005.3
20260510081541 10 215 8.0 17.7 0.00 0.18 0.10 90 1005.3
20260510080038 10 209 8.0 17.7 0.00 0.18 0.10 90 1004.8
20260510074537 10 227 9.7 20.9 0.00 0.18 0.10 90 1004.9
20260510073043 10 244 9.7 19.3 0.00 0.18 0.10 91 1004.9
20260510071540 10 236 11.3 20.9 0.00 0.18 0.10 90 1004.9
20260510070043 10 226 11.3 24.1 0.00 0.18 0.10 90 1004.8
20260510064540 10 232 9.7 22.5 0.00 0.18 0.10 90 1004.6
20260510063038 11 230 14.5 27.4 0.00 0.18 0.10 90 1004.6
20260510061537 11 200 11.3 20.9 0.00 0.18 0.10 91 1004.7
20260510060042 11 205 11.3 22.5 0.00 0.18 0.10 91 1004.5
20260510054541 11 219 9.7 20.9 0.03 0.18 0.10 91 1004.4
20260510053038 10 202 4.8 17.7 0.03 0.18 0.10 91 1004.2
20260510051539 10 190 4.8 12.9 0.05 0.18 0.10 91 1004.0
20260510050039 10 195 6.4 19.3 0.10 0.18 0.10 91 1003.9
20260510044536 10 169 4.8 14.5 0.15 0.15 0.08 90 1004.2
20260510043035 10 147 6.4 14.5 0.15 0.15 0.08 89 1004.2
20260510041543 10 162 4.8 20.9 0.13 0.13 0.05 87 1004.1
20260510040039 11 155 1.6 8.0 0.08 0.08 0.00 83 1004.3
20260510034538 11 151 6.4 16.1 0.00 0.00 0.00 79 1004.0
20260510033038 12 141 11.3 24.1 0.00 0.00 0.00 76 1003.7
20260510031537 12 119 11.3 19.3 0.00 0.00 0.00 75 1003.8
20260510030049 12 119 6.4 17.7 0.00 0.00 0.00 74 1003.9
20260510024535 12 145 11.3 22.5 0.00 0.00 0.00 74 1003.8
20260510023037 12 136 11.3 22.5 0.00 0.00 0.00 74 1004.0
20260510021538 12 130 11.3 17.7 0.00 0.00 0.00 73 1004.3
20260510020037 12 136 12.9 20.9 0.00 0.00 0.00 72 1004.2
20260510014536 12 115 9.7 17.7 0.00 0.00 0.00 71 1004.4
20260510013036 13 136 9.7 20.9 0.00 0.00 0.00 69 1004.4
20260510011546 13 148 6.4 17.7 0.00 0.00 0.00 68 1004.4
20260510010038 13 128 3.2 19.3 0.00 0.00 0.00 67 1004.3
20260510004537 14 149 3.2 16.1 0.00 0.00 0.00 65 1004.2
20260510003041 15 184 6.4 14.5 0.00 0.00 0.00 64 1004.4
20260510001537 14 194 6.4 19.3 0.00 0.00 0.00 63 1004.2
20260510000037 14 115 12.9 24.1 0.00 0.00 0.00 63 1003.9
20260509234542 15 128 16.1 27.4 0.00 0.00 0.00 62 1003.8
20260509233038 15 125 12.9 25.7 0.00 0.00 0.00 61 1003.7
20260509231542 15 109 19.3 29.0 0.00 0.00 0.00 58 1003.5
20260509230037 16 116 12.9 22.5 0.00 0.00 0.00 51 1003.4
20260509224537 17 178 1.6 14.5 0.00 0.00 0.00 43 1003.5
20260509223036 18 204 4.8 19.3 0.00 0.00 0.00 41 1003.5
20260509221535 18 148 4.8 19.3 0.00 0.00 0.00 40 1003.7
20260509220040 18 126 6.4 17.7 0.00 0.00 0.00 40 1003.8
20260509214537 18 144 4.8 19.3 0.00 0.00 0.00 34 1003.8
20260509213038 18 96 19.3 38.6 0.00 0.00 0.00 39 1003.7
20260509211537 17 80 12.9 35.4 0.00 0.00 0.00 41 1003.9
20260509210044 18 100 14.5 27.4 0.00 0.00 0.00 36 1003.7
20260509204543 18 100 19.3 33.8 0.00 0.00 0.00 33 1003.9
20260509203041 18 119 16.1 33.8 0.00 0.00 0.00 35 1004.3
20260509201537 18 86 9.7 29.0 0.00 0.00 0.00 30 1004.3
20260509200037 18 115 12.9 40.2 0.00 0.00 0.00 28 1004.5
20260509194537 18 117 14.5 24.1 0.00 0.00 0.00 27 1004.8
20260509193041 18 120 17.7 30.6 0.00 0.00 0.00 28 1005.1
20260509191541 18 117 8.0 20.9 0.00 0.00 0.00 29 1005.3
20260509190038 18 112 8.0 24.1 0.00 0.00 0.00 28 1005.6
20260509184550 17 153 14.5 25.7 0.00 0.00 0.00 30 1005.9
20260509183038 18 125 12.9 25.7 0.00 0.00 0.00 29 1006.2
20260509181550 17 109 16.1 30.6 0.00 0.00 0.00 29 1006.1
20260509180045 17 201 11.3 24.1 0.00 0.00 0.00 29 1006.3
20260509174539 17 140 11.3 20.9 0.00 0.00 0.00 28 1006.5
20260509173042 17 178 6.4 16.1 0.00 0.00 0.00 30 1006.7
20260509171538 17 146 12.9 24.1 0.00 0.00 0.00 29 1006.9
20260509170046 17 175 4.8 16.1 0.00 0.00 0.00 32 1007.2